Flag for Germany Weather past 2 weeks in Wesseling, North Rhine-Westphalia, Germany

Now
57 °F

Clear.


Feels Like: 57 °F
Forecast: 45 / 67 °F
Wind: 3 mph from East

Location: Koeln / Bonn


UV Index: 0 (Low)

Visibility: 31 mi


Pressure: 29.72 "Hg

Humidity: 62%

Dew point: 44 °F

Location of WesselingLocation

Historic Weather in Wesseling

°F

Wesseling temperature yesterday

Maximum temperature yesterday: 71 °F (at 2:00 PM)
Minimum temperature yesterday: 48 °F (at 5:00 AM)
Average temperature yesterday: 61 °F

Past Weeks' High & Low Weather Summary

 TemperatureHumidityPressure
High72 °F (Apr 7, 5:00 PM)99% (Apr 6, 7:00 AM)30.45 "Hg (Apr 6, 7:00 AM)
Low29 °F (Apr 16, 7:00 AM)27% (Apr 17, 6:00 PM)29.65 "Hg (Apr 20, 5:00 PM)
Average52 °F67%30.07 "Hg
* Reported Apr 6 1:00 AM — Midnight between Apr 20 and Apr 21, Wesseling, Weather by CustomWeather, © 2014

Note: Actual official high and low records may vary slightly from our data, if they occured in-between our weather recording intervals... More about our weather records

Advertising

Historic Weather Conditions — Data for Previous 24 hours

 ConditionsComfort  
Time TempWeatherWind HumidityBarometerVisibility
12:00 AM
Apr 21
58 °FClear.6 mph60%29.71 "Hg31 mi
11:00 PM
Apr 20
59 °FClear.6 mph54%29.71 "Hg31 mi
10:00 PM62 °FPassing clouds.7 mph42%29.70 "Hg31 mi
9:00 PM63 °FPassing clouds.3 mph43%29.68 "Hg28 mi
8:00 PM66 °FScattered clouds.5 mph38%29.66 "Hg28 mi
7:00 PM69 °FPartly sunny.7 mph32%29.65 "Hg25 mi
6:00 PM70 °FPartly sunny.7 mph30%29.65 "Hg25 mi
5:00 PM70 °FPartly sunny.5 mph33%29.65 "Hg25 mi
4:00 PM69 °FPartly sunny.8 mph34%29.66 "Hg25 mi
3:00 PM70 °FPartly sunny.8 mph37%29.68 "Hg22 mi
2:00 PM71 °FScattered clouds.7 mph42%29.68 "Hg22 mi
1:00 PM68 °FScattered clouds.8 mph42%29.70 "Hg14 mi
12:00 PM66 °FScattered clouds.8 mph45%29.71 "Hg12 mi
11:00 AM65 °FPassing clouds.10 mph48%29.72 "Hg12 mi
10:00 AM64 °FPassing clouds.7 mph55%29.73 "Hg11 mi
9:00 AM61 °FPassing clouds.7 mph61%29.75 "Hg9 mi
8:00 AM58 °FScattered clouds.1 mph70%29.75 "Hg7 mi
7:00 AM57 °FPartly sunny.1 mph74%29.76 "Hg5 mi
6:00 AM50 °FOvercast.1 mph93%29.77 "Hg8 mi
5:00 AM48 °FFog.1 mph96%29.79 "Hg9 mi
4:00 AM49 °FClear.1 mph93%29.80 "Hg11 mi
3:00 AM48 °FClear.1 mph90%29.81 "Hg11 mi
2:00 AM55 °FClear.1 mph76%29.82 "Hg16 mi
1:00 AM56 °FClear.3 mph74%29.84 "Hg16 mi
Weather by CustomWeather, © 2014

See weather overview